sat.trackr.live / text

‹ back to catalog

STARLINK-11539 [DTC]

NORAD 62987 · 2025-031G

PAYLOAD ACTIVE UNKNOWN

§ Identity

Operator
Country
US
Launch date
2025-02-11
Launch site
AFETR
Launch vehicle
Mass (kg)
RCS (m²)

Purposes: comms

External: N2YO · Heavens-Above · Gunter

§ Orbital elements

Epoch: 2026-09-21T08:09:19.873440Z

Period
91.67 min
Inclination
42.9995°
Eccentricity
0.0001301
Mean motion
15.70868081 rev/d
Perigee alt
355.5 km
Apogee alt
357.3 km
Semi-major
6,734.6 km
B*
1.2914e-3
RAAN
262.0951°
Arg perigee
318.7782°
Mean anomaly
41.2987°
Rev number
9,351

§ Raw data

STARLINK-11539 [DTC]1 62987U 25031G   26264.33981335  .00168861  00000+0  12914-2 0  99962 62987  42.9995 262.0951 0001301 318.7782  41.2987 15.70868081 93511

JSON: /api/v1/satellites/62987 · /tle

For live sub-satellite position, see the globe view (requires WebGL).

§ Visibility from observer

Set your observer location to see the next 7 days of passes ≥ 10°. The values pass through the URL so the page stays shareable.

No JS? Fill the form by hand. The geolocation button needs JavaScript.